Date,TemperatureHighF,TemperatureAvgF,TemperatureLowF,DewpointHighF,DewpointAvgF,DewpointLowF,HumidityHigh,HumidityAvg,HumidityLow,PressureMaxIn,PressureMinIn,WindSpeedMaxMPH,WindSpeedAvgMPH,GustSpeedMaxMPH,PrecipitationSumIn
2013-1-1,35.2,28.4,18.7,31.5,23.4,10.2,88,82,69,28.79,28.59,6,0,6,0.00
2013-1-2,34.9,24.4,14.7,21.9,11.0,7.3,76,58,41,28.79,28.70,4,0,4,0.00
2013-1-3,44.4,29.7,20.5,25.6,15.2,10.8,75,56,38,28.94,28.79,5,0,5,0.00
2013-1-4,48.0,33.2,20.1,24.0,16.2,10.6,72,51,33,29.00,28.85,6,0,6,0.00
2013-1-5,41.7,35.1,24.6,25.7,20.8,10.7,67,56,45,28.85,28.70,8,1,8,0.00
2013-1-6,42.6,31.7,22.1,25.2,16.5,8.1,72,55,37,28.91,28.73,6,1,6,0.00
2013-1-7,50.4,35.5,19.8,22.6,16.4,8.2,66,47,33,28.88,28.67,5,1,5,0.00
2013-1-8,55.4,43.0,29.1,40.2,25.2,15.0,81,51,35,28.76,28.61,6,1,6,0.28
2013-1-9,56.3,49.2,43.7,48.1,35.6,25.5,89,63,39,28.94,28.76,8,1,8,0.00
2013-1-10,53.1,48.1,42.6,49.6,41.9,25.7,90,80,40,28.85,28.38,10,1,10,0.16
2013-1-11,66.4,54.9,44.6,46.4,39.4,33.7,89,59,34,28.44,28.32,8,2,8,0.00
2013-1-12,53.4,42.2,28.0,42.3,30.0,20.1,80,64,37,28.53,28.38,8,1,8,0.20
2013-1-13,28.0,22.4,15.6,22.5,13.0,4.8,80,67,58,28.88,28.50,0,0,0,0.00
2013-1-14,30.7,21.3,13.6,10.4,7.1,3.7,67,54,42,29.03,28.85,0,0,0,0.00
2013-1-15,33.1,23.8,17.1,12.7,9.0,6.1,64,53,40,28.88,28.70,0,0,0,0.00
2013-1-16,46.0,27.8,14.5,20.7,11.9,5.9,73,53,33,28.73,28.64,5,0,5,0.00
2013-1-17,47.1,32.6,23.7,31.3,17.3,11.7,75,54,37,29.03,28.70,5,1,6,0.00
2013-1-18,57.0,39.9,22.6,25.7,19.3,12.4,71,47,26,29.03,28.73,8,1,8,0.00
2013-1-19,66.7,48.0,35.4,31.9,24.4,16.0,63,41,26,28.76,28.61,9,1,9,0.00
2013-1-20,55.8,41.2,28.0,30.2,17.5,7.8,63,40,26,28.85,28.73,8,1,8,0.00
2013-1-21,36.9,26.8,20.1,11.8,6.5,3.2,49,42,34,28.97,28.82,9,2,9,0.00
2013-1-22,34.3,27.1,20.1,12.5,7.8,2.9,50,44,40,28.94,28.76,6,1,6,0.00
2013-1-23,59.5,38.4,21.9,32.3,20.1,9.5,63,48,35,28.85,28.70,6,0,6,0.00
2013-1-24,35.8,30.3,24.1,15.5,8.8,3.8,45,40,36,29.03,28.70,8,3,8,0.00
2013-1-25,49.8,36.3,27.1,25.4,18.8,8.9,73,51,35,28.85,28.67,6,1,6,0.00
2013-1-26,58.6,43.4,28.9,25.1,20.2,15.4,67,42,26,28.91,28.73,8,1,8,0.00
2013-1-27,54.9,47.6,40.5,49.0,37.1,19.5,82,68,35,28.73,28.50,8,3,8,0.00
2013-1-28,73.9,64.6,54.9,55.6,51.6,47.3,83,65,41,28.59,28.41,14,2,14,0.00
2013-1-29,67.6,59.3,48.4,57.9,52.1,45.0,89,78,60,28.41,28.05,9,1,9,3.66
2013-1-30,48.7,33.3,26.6,45.9,23.9,11.4,90,69,52,28.61,28.05,10,0,10,0.00
2013-1-31,43.5,25.8,12.4,23.5,12.1,-4.4,80,57,39,29.09,28.56,9,2,9,0.00
2013-2-1,35.2,22.6,9.5,11.2,2.3,-7.1,50,41,34,29.35,28.79,5,1,5,0.00
2013-2-2,53.8,36.2,24.8,27.3,16.9,6.5,63,46,36,28.97,28.70,8,1,8,0.00
2013-2-3,53.2,42.7,34.0,25.0,19.8,14.4,58,41,28,29.06,28.59,8,1,8,0.00
2013-2-4,63.7,48.2,33.1,35.7,25.5,17.7,56,41,32,28.73,28.47,10,1,10,0.00
2013-2-5,65.7,43.8,27.0,36.7,24.2,18.8,78,49,25,28.91,28.53,8,1,8,0.00
2013-2-6,59.5,45.3,30.2,31.0,25.8,18.8,66,47,32,29.12,28.61,8,2,8,0.00
2013-2-7,54.1,47.3,40.6,46.0,37.8,30.4,86,70,51,28.97,28.53,8,1,8,0.55
2013-2-8,50.5,39.5,32.7,33.8,25.4,21.4,79,59,37,30.30,28.76,7,2,7,0.00
2013-2-9,41.5,35.7,32.0,33.0,25.6,21.0,84,67,46,30.83,28.64,9,3,9,0.08
2013-2-10,65.3,49.0,37.4,53.6,32.5,17.0,93,60,26,30.92,28.47,10,2,10,0.12
2013-2-11,54.0,40.0,29.3,25.1,18.9,14.7,58,44,29,31.01,28.70,6,1,6,0.00
2013-2-12,46.4,36.3,26.1,26.9,21.8,15.6,75,57,38,31.01,28.79,6,0,6,0.00
2013-2-13,51.6,38.9,32.9,36.8,27.3,19.8,85,65,38,31.01,28.82,5,0,5,0.24
2013-2-14,57.9,44.6,31.6,29.1,22.6,15.6,58,42,31,31.01,28.79,6,1,6,0.00
2013-2-15,44.2,37.3,23.4,22.1,15.7,4.0,62,42,29,31.01,29.15,7,2,7,0.00
2013-2-16,40.3,31.3,22.8,17.0,12.4,4.3,64,46,35,31.01,29.29,6,1,6,0.00
2013-2-17,63.9,46.6,30.0,28.2,20.0,10.6,44,35,26,31.01,30.92,6,1,6,0.00
2013-2-18,57.2,46.8,31.6,47.1,30.8,15.9,79,54,41,31.01,30.80,10,2,10,0.04
2013-2-19,45.3,33.0,24.3,15.9,11.2,4.6,54,41,29,31.01,31.01,9,2,9,0.00
2013-2-20,34.9,27.1,24.3,9.5,4.6,2.5,41,38,33,31.01,31.01,6,1,6,0.00
2013-2-21,32.7,29.3,27.5,28.7,16.3,7.0,85,60,36,31.01,31.01,10,2,10,0.00
2013-2-22,35.6,28.1,22.1,29.5,17.9,10.4,86,67,45,31.01,31.01,0,0,0,0.08
2013-2-23,44.2,29.3,18.1,20.6,14.2,10.3,74,55,35,31.01,31.01,5,0,5,0.04
2013-2-24,54.7,39.7,22.3,28.1,20.6,11.4,69,48,35,31.01,31.01,8,2,8,0.00
2013-2-25,46.0,38.7,34.2,30.4,23.3,18.0,83,56,37,31.01,31.01,11,2,11,0.43
2013-2-26,35.2,32.9,32.4,30.6,28.9,28.0,87,85,81,31.01,17.72,10,0,10,0.12
2013-2-27,34.0,32.5,31.1,28.0,23.8,20.0,83,70,59,17.72,17.72,6,1,6,0.04
2013-2-28,33.6,31.1,28.4,21.8,18.9,16.2,69,60,54,17.72,17.72,6,2,6,0.00
2013-3-1,30.4,28.8,27.1,22.8,19.4,16.4,74,68,59,17.72,17.72,6,2,6,0.00
2013-3-2,36.1,27.4,20.7,20.3,13.2,8.1,74,56,40,17.72,17.72,6,2,6,0.00
2013-3-3,55.0,38.0,20.3,24.2,18.0,8.4,68,47,29,17.72,17.72,7,2,7,0.00
2013-3-4,66.2,49.4,37.6,38.4,29.1,19.0,70,46,33,17.72,17.72,8,2,8,0.00
2013-3-5,43.7,37.0,29.5,29.6,19.6,12.7,80,50,36,17.72,17.72,11,4,11,0.04
2013-3-6,48.4,35.2,25.5,20.5,14.4,8.9,52,43,32,17.72,17.72,9,2,9,0.00
2013-3-7,62.1,45.6,31.5,26.9,21.3,14.9,54,39,25,17.72,17.72,6,2,6,0.00
2013-3-8,59.2,47.1,35.8,31.0,26.5,23.5,64,46,34,17.72,17.72,8,3,8,0.00
2013-3-9,73.0,56.3,43.9,52.2,38.6,29.8,85,55,29,17.72,17.72,8,2,8,0.79
2013-3-10,59.5,47.6,32.2,53.2,42.4,26.7,91,82,51,17.72,17.72,8,1,8,1.06
2013-3-11,45.5,33.4,27.7,26.7,20.6,14.4,80,61,38,17.72,17.72,8,1,8,0.00
2013-3-12,56.7,40.1,26.2,24.6,19.0,14.0,64,45,27,17.72,17.72,8,2,8,0.00
2013-3-13,50.4,37.3,27.0,21.8,15.9,12.6,55,42,29,17.72,17.72,6,1,6,0.00
2013-3-14,73.9,50.5,29.3,35.2,24.9,14.3,59,39,24,17.72,17.72,10,1,10,0.00
2013-3-15,82.4,62.7,40.6,42.0,35.8,29.5,73,40,22,17.72,17.72,13,1,13,0.00
2013-3-16,66.2,57.0,43.2,41.7,34.3,29.2,59,43,34,17.72,17.72,10,3,10,0.00
2013-3-17,43.2,39.4,37.0,37.0,34.4,29.8,87,82,59,17.72,17.72,8,1,8,1.18
2013-3-18,55.2,43.1,34.2,39.3,31.8,20.0,89,68,35,17.72,17.72,9,1,9,0.00
2013-3-19,49.8,38.6,27.7,25.0,18.6,14.8,65,46,29,17.72,17.72,7,1,7,0.00
2013-3-20,46.8,35.7,27.0,27.2,15.3,5.2,77,46,28,17.72,17.72,10,2,10,0.00
2013-3-21,36.9,30.6,25.2,25.8,15.0,6.7,84,54,34,17.72,17.72,7,1,7,0.00
2013-3-22,37.6,33.6,30.0,30.7,28.5,25.8,86,81,75,17.72,17.72,6,1,6,0.24
2013-3-23,34.9,34.5,34.3,30.2,29.7,29.4,84,83,80,17.72,17.72,3,0,3,0.00
2013-6-10,79.5,75.6,72.5,62.7,62.1,61.6,70,63,55,17.72,17.72,0,0,0,0.00
2013-6-11,96.1,81.6,69.3,63.2,58.0,50.8,73,48,24,17.72,17.72,8,0,8,0.00
2013-6-12,78.8,71.4,70.7,62.0,61.4,56.7,74,71,47,17.72,17.72,8,1,8,0.00
2013-6-13,70.7,70.7,70.7,62.0,62.0,62.0,74,74,74,17.72,17.72,6,1,6,0.00
2013-6-14,70.7,70.7,70.7,62.0,62.0,62.0,74,74,74,17.72,17.72,6,1,6,0.00
2013-6-15,70.7,70.7,70.7,62.0,62.0,62.0,74,74,74,17.72,17.72,8,1,8,4.53
2013-10-19,57.9,47.6,42.4,46.6,39.6,-99.9,98,81,65,29.93,29.90,4,-30,0,0.00
2013-10-20,70.0,51.8,38.8,53.2,46.0,38.3,98,83,51,29.93,29.82,7,2,0,0.00
2013-10-21,57.6,48.3,37.4,51.4,45.6,36.9,98,91,70,30.03,29.91,7,1,0,0.00
2013-10-22,64.9,49.2,34.7,54.5,44.6,34.2,98,86,65,30.01,29.82,12,2,0,0.00
2013-10-23,56.7,44.4,34.3,47.8,41.5,33.8,98,90,63,30.10,29.97,4,1,0,0.00
2013-10-24,54.0,44.7,35.6,47.8,38.2,33.2,98,80,54,30.28,30.00,9,2,0,0.00
2013-10-25,60.4,42.6,26.6,41.2,34.6,26.1,98,76,46,30.33,30.01,7,2,0,0.00
2013-10-26,65.8,50.6,39.0,59.1,48.4,36.7,98,93,79,30.01,29.88,7,2,0,0.00
2013-10-27,67.6,48.9,31.5,49.9,42.6,31.0,98,82,49,29.93,29.79,5,1,0,0.00
2013-10-28,69.6,53.7,37.8,62.6,51.8,37.2,98,94,73,30.00,29.84,5,2,0,0.00
2013-10-29,64.6,59.5,53.4,64.0,59.0,52.9,98,98,98,29.98,29.81,6,3,0,1.86
2013-10-30,67.1,64.1,61.3,66.5,63.5,60.8,98,98,98,29.86,29.65,5,2,0,0.52
2013-10-31,69.4,59.2,48.4,68.8,58.6,47.8,98,98,98,29.64,29.28,7,3,0,0.37
2013-11-1,64.2,51.6,42.8,53.9,48.2,42.3,98,89,64,29.85,29.57,9,2,0,0.00
2013-11-2,57.0,45.9,34.7,49.2,43.7,34.2,98,93,72,30.09,29.84,10,2,0,0.00
2013-11-3,61.5,46.1,30.6,50.7,42.4,30.1,98,88,66,30.11,29.91,11,3,0,0.00
2013-11-4,62.6,52.6,48.0,57.4,51.5,47.5,98,96,82,30.05,29.90,7,3,0,0.00
2013-11-5,58.8,55.5,52.2,58.3,54.9,51.6,98,98,98,30.04,29.82,9,4,0,0.66
2013-11-6,59.4,45.8,37.4,58.8,45.3,36.9,98,98,98,30.20,29.76,8,3,0,0.48
2013-11-7,60.3,42.2,28.6,48.3,38.4,28.1,98,88,59,30.28,30.17,6,1,0,0.00
2013-11-8,66.0,54.8,32.7,52.2,44.4,32.2,98,69,49,30.20,29.91,10,3,0,0.00
2013-11-9,66.7,52.1,42.1,54.6,47.3,41.6,98,86,61,30.11,29.93,8,2,0,0.00
2013-11-10,66.2,49.7,37.2,48.0,43.3,36.7,98,81,48,30.24,30.10,10,1,0,0.00
2013-11-11,61.9,49.3,37.4,57.4,47.7,36.9,98,94,82,30.26,30.00,15,2,0,0.00
2013-11-12,37.2,29.6,24.8,36.7,26.3,21.8,98,87,69,30.57,30.26,13,6,0,0.00
2013-11-16,66.7,66.7,66.7,66.2,66.2,66.2,98,98,98,29.43,29.41,12,6,0,0.00
2013-11-17,72.3,65.0,49.1,70.3,53.0,31.6,98,68,38,29.88,29.31,21,8,0,0.00
2013-11-18,60.3,46.7,35.4,45.7,38.1,34.1,98,75,42,30.10,29.88,6,1,0,0.00
2013-11-19,57.6,45.3,32.7,40.7,36.0,32.2,98,72,49,30.10,29.90,11,5,0,0.00
2013-11-20,59.2,47.9,37.9,42.2,38.2,31.7,98,70,52,29.90,29.73,15,7,0,0.07
2013-11-21,53.1,49.8,45.5,51.6,47.8,41.5,98,93,65,30.05,29.82,9,3,0,1.01
2013-11-22,43.2,32.8,30.4,42.6,32.3,29.9,98,98,98,30.33,30.07,10,5,0,0.00
2013-11-23,39.4,29.6,18.1,30.2,23.8,14.3,98,80,61,30.47,30.32,11,5,0,0.00
2013-11-24,30.9,22.4,12.9,17.6,14.6,11.2,93,73,49,30.47,30.13,10,4,0,0.00
2013-11-25,37.2,31.6,27.7,35.1,27.4,17.1,98,85,64,30.13,29.93,8,2,0,0.00
2013-11-26,42.4,35.9,31.1,36.4,31.8,30.6,98,86,73,30.08,29.87,12,4,0,0.00
2013-11-27,37.6,25.0,17.4,30.7,17.5,13.6,86,74,53,30.17,30.03,7,3,0,0.00
2013-11-28,51.4,38.7,21.7,37.6,29.3,17.3,89,70,58,30.22,30.02,12,3,0,0.00
2013-11-29,51.3,38.5,22.8,39.2,32.2,22.3,98,80,62,30.28,30.09,7,3,0,0.00
2013-11-30,61.0,47.0,41.2,51.9,42.1,35.8,98,83,71,30.09,29.87,11,4,0,0.00
2013-12-1,50.9,43.5,37.8,50.4,43.0,37.2,98,98,98,29.90,29.65,2,1,0,0.00
2013-12-2,58.8,47.8,40.5,56.7,47.1,39.9,98,97,90,29.66,29.43,6,2,0,0.00
2013-12-3,63.1,50.6,39.9,61.7,49.9,39.4,98,97,91,29.44,29.32,7,4,0,0.00
2013-12-4,63.3,55.5,32.9,58.4,52.4,32.4,98,90,77,29.71,29.33,9,6,0,0.00
2013-12-5,30.9,23.6,18.1,30.4,22.7,17.7,98,96,90,30.06,29.70,8,4,0,0.00
2013-12-6,18.0,17.6,17.2,17.5,17.1,16.8,98,98,98,30.04,30.00,9,5,0,0.00
2013-12-10,35.6,20.7,5.2,25.8,17.2,4.7,98,87,63,30.15,30.02,7,1,0,0.08
2013-12-11,36.0,22.2,10.4,29.1,18.6,9.9,98,87,64,30.37,30.04,8,2,0,0.04
2013-12-12,42.6,25.2,9.1,27.6,19.3,8.7,98,80,53,30.38,30.03,9,2,0,0.07
2013-12-13,34.7,31.7,25.7,34.2,30.2,21.0,98,94,79,30.03,29.62,9,5,0,0.13
2013-12-14,34.2,30.2,25.5,33.7,29.7,25.0,98,98,98,29.97,29.59,10,3,0,0.04
2013-12-15,47.3,32.1,16.0,40.1,30.3,15.5,98,94,76,29.98,29.83,9,3,0,0.48
2013-12-16,61.2,44.1,32.7,45.8,38.8,32.2,98,83,54,29.90,29.78,9,2,0,0.00
2013-12-17,52.9,36.4,26.6,42.7,33.5,26.1,98,90,62,30.07,29.87,7,1,0,0.00
2013-12-18,62.2,43.2,26.2,47.6,37.8,25.8,98,83,53,30.06,29.71,11,4,0,0.00
2013-12-19,55.8,51.5,44.6,55.2,51.0,44.1,98,98,98,29.70,29.50,9,4,0,0.00
2013-12-20,59.9,43.6,31.1,59.3,43.1,30.6,98,98,98,29.64,29.48,8,3,0,0.01
2013-12-21,36.0,33.2,31.1,35.5,32.7,30.6,98,98,98,29.56,29.25,8,2,0,0.76
2013-12-22,35.8,28.4,23.7,35.3,27.9,23.2,98,98,98,30.09,29.42,10,5,0,0.00
2013-12-23,26.8,21.2,17.1,23.1,20.4,16.6,98,97,85,30.30,30.09,8,3,0,0.00
2013-12-28,55.8,43.5,26.1,43.1,37.5,25.6,98,80,58,29.98,29.69,8,3,0,0.00
2013-12-29,42.6,28.4,18.1,42.1,27.2,16.5,98,95,90,30.03,29.68,8,4,0,0.00
2013-12-30,37.9,22.3,10.2,23.4,15.9,6.8,93,77,54,30.07,29.95,6,2,0,0.00
2013-12-31,56.3,37.0,17.4,37.9,28.1,17.0,98,73,46,30.13,29.92,11,3,0,0.00
2014-1-1,49.3,36.1,19.9,37.7,32.2,19.5,98,87,64,29.92,29.66,12,4,0,0.00
2014-1-2,21.2,13.7,8.4,18.7,11.2,5.7,98,90,68,30.21,29.87,9,4,0,0.00